Regional Weather Roundup
Issued by NWS

Home | Current Version | Previous Version | Text Only | Print | Product List | Glossary On
Versions: 1 2 3 4 5 6 7 8 9 10 11 12 13 14 15 16 17 18 19 20 21 22 23 24 25 26 27 28 29 30 31 32 33 34 35 36 37 38 39 40 41 42 43 44 45 46 47 48 49 50
000
ASUS44 KBMX 070010
RWRAL

ALABAMA REGIONAL WEATHER ROUNDUP
NATIONAL WEATHER SERVICE BIRMINGHAM AL
600 PM CST SAT FEB 06 2016

NOTE: "FAIR" INDICATES FEW OR NO CLOUDS BELOW 12,000 FEET
WITH NO SIGNIFICANT WEATHER AND/OR OBSTRUCTIONS TO VISIBILITY.

THE REMARK "TC" DENOTES TEMPERATURE IN DEGREES CELSIUS.

ALZ001>011-014-016>018-020-070100-
NORTH ALABAMA

CITY           SKY/WX    TMP DP  RH WIND       PRES   REMARKS
MUSCLE SHOALS  PTCLDY    43  29  57 CALM      30.31S
6HR MIN TEMP:  42; 6HR MAX TEMP:  50;

HUNTSVILLE     PTCLDY    44  20  38 N3        30.28S
6HR MIN TEMP:  44; 6HR MAX TEMP:  51;

DECATUR        CLEAR     40  27  59 MISG      30.30S
6HR MIN TEMP:  40; 6HR MAX TEMP:  48;

HALEYVILLE     FAIR      41  22  46 CALM      30.30S
6HR MIN TEMP:  41; 6HR MAX TEMP:  50;

GADSDEN        CLEAR     41  23  48 NW3       30.28S
6HR MIN TEMP:  41; 6HR MAX TEMP:  50;

$$

ALZ012-013-022-023-030>036-040>044-070100-
WEST CENTRAL ALABAMA

CITY           SKY/WX    TMP DP  RH WIND       PRES   REMARKS
TUSCALOOSA     CLEAR     47  18  31 N5        30.28S
6HR MIN TEMP:  46; 6HR MAX TEMP:  55;

$$

ALZ015-024>027-033>036-040>044-070100-
CENTRAL ALABAMA

CITY           SKY/WX    TMP DP  RH WIND       PRES   REMARKS
BIRMINGHAM     CLEAR     45  20  36 N3        30.28F
6HR MIN TEMP:  45; 6HR MAX TEMP:  51;

MONTGOMERY     CLEAR     48  19  31 NW3       30.25S
6HR MIN TEMP:  48; 6HR MAX TEMP:  55;

SHELBY CO ARPT CLEAR     45  19  35 N3        30.26S
6HR MIN TEMP:  44; 6HR MAX TEMP:  52;

MAXWELL AFB    CLEAR     48  24  39 NW3       30.24R
6HR MIN TEMP:  48; 6HR MAX TEMP:  54;

GREENVILLE     NOT AVBL
$$

ALZ019-021-028-029-037-038-045>048-070100-
EAST CENTRAL ALABAMA

CITY           SKY/WX    TMP DP  RH WIND       PRES   REMARKS
ANNISTON       CLEAR     46  16  30 N6        30.26F
6HR MIN TEMP:  46; 6HR MAX TEMP:  53;

ALEXANDER CITY CLEAR     46  26  46 N6        30.24R
6HR MIN TEMP:  46; 6HR MAX TEMP:  51;

AUBURN         CLEAR     45  21  38 N3        30.24R
6HR MIN TEMP:  45; 6HR MAX TEMP:  53;

$$

ALZ051>064-070100-
SOUTHWEST ALABAMA

CITY           SKY/WX    TMP DP  RH WIND       PRES   REMARKS
MOBILE         PTCLDY    49  24  37 N5        30.25R
6HR MIN TEMP:  49; 6HR MAX TEMP:  57;

BROOKLEY FIELD CLEAR     49  25  39 N5        30.26R
6HR MIN TEMP:  49; 6HR MAX TEMP:  58;

EVERGREEN      CLEAR     45  24  43 CALM      30.24S
6HR MIN TEMP:  45; 6HR MAX TEMP:  56;

$$

ALZ049-050-065>069-070100-
SOUTHEAST ALABAMA

CITY           SKY/WX    TMP DP  RH WIND       PRES   REMARKS
DOTHAN         CLEAR     48  31  51 N3        30.24S
6HR MIN TEMP:  48; 6HR MAX TEMP:  57;

OZARK          MOCLDY    51  26  37 NW6       30.20S
6HR MIN TEMP:  51; 6HR MAX TEMP:  56;

TROY           PTCLDY    48  27  44 NW5       30.24R
6HR MIN TEMP:  47; 6HR MAX TEMP:  57;

EUFAULA        FAIR      44  32  62 CALM      30.21S
6HR MIN TEMP:  44; 6HR MAX TEMP:  58;

$$



USA.gov is the U.S. government's official web portal to all federal, state and local government web resources and services.